[[{"header":{"parameterUnit":"m.s-1","parameterCategory":1,"la1":30.2991,"la2":30.254,"lo1":-89.0895,"lo2":-89.0444,"dy":0.0017,"dx":0.0017,"nx":28,"ny":28,"refTime":"2024-05-29T03:00:00:Z","depth":0,"parameterNumber":2,"parameterNumberName":"U-component_of_WINDS"},"data":[0,0,0,0,0,0,0,0,0,0,0,0,0,0,0,0,0,0,0,0,0,0,0,0,0,0,0,0,0,0,0,0,0,0,0,0,0,0,0,0,0,0,0,0,0,0,0,0,0,0,0,0,0,0,0,0,0,0,-0.7521,-0.7521,0,-0.7589,-0.759,-0.7591,-0.763,-0.763,-0.763,-0.763,-0.7701,-0.7703,-0.7705,0,0,0,0,0,0,0,0,0,0,0,0,0,-0.7425,-0.7426,-0.7521,-0.7522,-0.7522,-0.7589,-0.759,-0.7591,-0.763,-0.763,-0.763,-0.763,-0.7701,-0.7703,-0.7705,0,0,0,0,0,0,0,0,0,0,0,0,0,-0.7477,-0.7427,-0.752,-0.755,-0.7553,-0.7589,-0.759,-0.7591,-0.763,-0.763,-0.763,-0.7631,-0.77,-0.7703,-0.7705,-0.7717,0,0,-0.7713,-0.7715,0,0,0,0,0,0,0,0,-0.7474,-0.7481,-0.7545,-0.7548,-0.7552,-0.7601,-0.7582,-0.7634,-0.763,-0.7601,-0.763,-0.7631,-0.7668,-0.7673,-0.7686,-0.7721,-0.7724,-0.7714,-0.7715,-0.7716,-0.7717,0,0,0,0,0,0,0,-0.747,-0.7478,-0.7548,-0.7546,-0.755,-0.756,-0.7568,-0.7592,-0.7632,-0.7603,-0.7606,-0.7614,-0.767,-0.7683,-0.7688,-0.7725,-0.7714,-0.7716,-0.7718,-0.7719,-0.7774,-0.7774,0,0,0,0,0,0,-0.7462,-0.7475,-0.7546,-0.755,-0.7513,-0.7562,-0.757,-0.7585,-0.7632,-0.764,-0.7614,-0.7615,-0.7678,-0.7685,-0.769,-0.7708,-0.7716,-0.7719,-0.772,-0.7774,-0.7774,-0.7774,0,0,0,0,0,0,-0.746,-0.7468,-0.7543,-0.7513,-0.7523,-0.7563,-0.758,-0.7586,-0.76,-0.764,-0.7647,-0.762,-0.7679,-0.7687,-0.7711,-0.7711,-0.772,-0.7722,-0.7774,-0.7774,-0.7774,-0.7743,0,0,0,0,0,0,-0.7457,-0.7467,-0.7472,-0.7513,-0.7525,-0.7561,-0.758,-0.7588,-0.7604,-0.7607,-0.7648,-0.7655,-0.768,-0.7706,-0.7713,-0.7715,-0.7724,-0.7775,-0.7774,-0.7774,-0.7744,-0.7742,-0.774,0,0,0,0,0,-0.7453,-0.746,-0.7472,-0.748,-0.7531,-0.7561,-0.7568,-0.7597,-0.7604,-0.7609,-0.7635,-0.7653,-0.771,-0.7709,-0.7716,-0.7719,-0.7775,-0.7774,-0.7774,-0.7745,-0.7743,-0.774,0,0,0,0,0,0,-0.7418,-0.7466,-0.7479,-0.75,-0.7526,-0.7568,-0.7575,-0.7593,-0.7618,-0.762,-0.7654,-0.7663,-0.7684,-0.7704,-0.7702,-0.7734,-0.7744,-0.7746,-0.772,-0.7717,-0.7715,-0.771,-0.7727,0,0,0,0,0,-0.7412,-0.7432,-0.7474,-0.7488,-0.75,-0.7535,-0.755,-0.7569,-0.7598,-0.761,-0.7638,-0.7665,-0.7689,-0.7705,-0.7729,-0.7748,-0.7757,-0.7753,-0.7751,-0.7749,-0.775,-0.7762,-0.7761,-0.7773,-0.7773,-0.7773,0,0,-0.7402,-0.743,-0.7441,-0.7481,-0.7504,-0.7525,-0.7545,-0.7565,-0.7581,-0.7613,-0.7637,-0.7659,-0.7692,-0.7713,-0.7724,-0.7731,-0.7749,-0.7749,-0.7747,-0.7749,-0.7761,-0.776,-0.7759,-0.7773,-0.7773,-0.7773,0,0,-0.7392,-0.7415,-0.743,-0.7453,-0.7487,-0.751,-0.7514,-0.7553,-0.7569,-0.7594,-0.7618,-0.7638,-0.7678,-0.7701,-0.7718,-0.7718,-0.7735,-0.7725,-0.7713,-0.7724,-0.7723,-0.7723,-0.7723,-0.7722,-0.7725,-0.7725,-0.7725,0,-0.7374,-0.7405,-0.7435,-0.7455,-0.7472,-0.7502,-0.7517,-0.7538,-0.7578,-0.759,-0.7597,-0.7649,-0.7673,-0.77,-0.77,-0.7713,-0.7718,-0.772,-0.7721,-0.7721,-0.772,-0.7721,-0.7721,-0.7724,-0.7724,-0.7724,-0.7724,0,-0.7382,-0.7403,-0.7411,-0.7449,-0.7467,-0.7485,-0.7518,-0.7533,-0.7551,-0.7574,-0.7599,-0.763,-0.7661,-0.7669,-0.7687,-0.7699,-0.7702,-0.7714,-0.7726,-0.7717,-0.7718,-0.7719,-0.7722,-0.7722,-0.7722,-0.7723,0,0,-0.7352,-0.7407,-0.7409,-0.7427,-0.7467,-0.7485,-0.7503,-0.7534,-0.7546,-0.7573,-0.759,-0.7624,-0.7636,-0.7655,-0.7676,-0.7686,-0.7684,-0.7697,-0.7699,-0.7694,-0.77,-0.769,-0.769,-0.7696,-0.7696,-0.7696,-0.7697,0,-0.7348,-0.7383,-0.7411,-0.7435,-0.7456,-0.7485,-0.7501,-0.7528,-0.755,-0.7571,-0.7596,-0.7619,-0.7633,-0.7645,-0.7656,-0.7682,-0.7686,-0.7682,-0.7712,-0.7713,-0.7703,-0.7691,-0.7681,-0.768,-0.7698,-0.7698,-0.7698,0,-0.7348,-0.7374,-0.7401,-0.7439,-0.7449,-0.7463,-0.7494,-0.7513,-0.7544,-0.756,-0.7581,-0.7603,-0.7625,-0.7634,-0.7665,-0.7662,-0.7676,-0.7691,-0.7691,-0.7695,-0.7705,-0.7694,-0.768,-0.768,-0.7699,-0.7699,-0.7699,0,-0.7324,-0.7365,-0.7387,-0.7401,-0.7447,-0.7456,-0.7476,-0.7507,-0.7524,-0.7551,-0.7562,-0.7591,-0.7607,-0.7629,-0.7658,-0.7662,-0.7686,-0.7697,-0.7699,-0.7699,-0.7703,-0.7702,-0.7691,-0.7712,-0.7712,-0.7712,-0.7712,0,-0.7317,-0.7332,-0.7376,-0.739,-0.7408,-0.744,-0.7457,-0.7479,-0.7507,-0.7525,-0.7552,-0.7569,-0.7606,-0.7628,-0.7651,-0.7673,-0.768,-0.7693,-0.7699,-0.7691,-0.7689,-0.77,-0.7701,-0.7712,-0.7712,-0.7712,-0.7712,0,-0.7293,-0.7323,-0.7348,-0.7389,-0.74,-0.7411,-0.7447,-0.7461,-0.7485,-0.7508,-0.7515,-0.7552,-0.7579,-0.761,-0.7647,-0.7662,-0.7682,-0.7691,-0.7672,-0.7675,-0.7675,-0.7675,-0.7671,-0.7672,-0.7692,-0.7692,-0.7691,0,-0.7286,-0.7299,-0.7341,-0.7355,-0.7374,-0.7396,-0.7413,-0.7446,-0.7463,-0.7499,-0.7509,-0.7538,-0.7562,-0.7603,-0.7634,-0.7662,-0.7672,-0.7669,-0.7676,-0.7668,-0.7672,-0.7671,-0.7673,-0.7667,-0.7666,-0.7666,-0.7666,0,-0.7272,-0.7286,-0.731,-0.7339,-0.7359,-0.7383,-0.7409,-0.7419,-0.7457,-0.7474,-0.7502,-0.7521,-0.7558,-0.7586,-0.7619,-0.7639,-0.7659,-0.7663,-0.7665,-0.7657,-0.7645,-0.7651,-0.7666,-0.7663,-0.7663,-0.7663,-0.7663,-0.7664,-0.7257,-0.7269,-0.7301,-0.7326,-0.7349,-0.7373,-0.7388,-0.7413,-0.7437,-0.747,-0.7488,-0.7515,-0.7546,-0.7592,-0.7612,-0.7633,-0.764,-0.7643,-0.7644,-0.7644,-0.7642,-0.7641,-0.7639,-0.764,-0.764,-0.764,-0.764,0,-0.7244,-0.7266,-0.7289,-0.7324,-0.7344,-0.7361,-0.739,-0.7406,-0.7429,-0.7457,-0.748,-0.7512,-0.754,-0.7572,-0.7602,-0.7613,-0.7623,-0.762,-0.762,-0.7624,-0.7634,-0.7629,-0.7612,-0.7612,-0.7612,-0.7612,-0.7612,-0.7612,-0.7239,-0.7261,-0.728,-0.7313,-0.7336,-0.7362,-0.7378,-0.7399,-0.7422,-0.7456,-0.7479,-0.75,-0.753,-0.7562,-0.7588,-0.7597,-0.7607,-0.7601,-0.7613,-0.7621,-0.7623,-0.7626,-0.7622,-0.7603,-0.7603,-0.7601,-0.7601,-0.7601]},{"header":{"parameterUnit":"m.s-1","parameterCategory":1,"la1":30.2991,"la2":30.254,"lo1":-89.0895,"lo2":-89.0444,"dy":0.0017,"dx":0.0017,"nx":28,"ny":28,"refTime":"2024-05-29T03:00:00:Z","depth":0,"parameterNumber":3,"parameterNumberName":"V-component_of_WINDS"},"data":[0,0,0,0,0,0,0,0,0,0,0,0,0,0,0,0,0,0,0,0,0,0,0,0,0,0,0,0,0,0,0,0,0,0,0,0,0,0,0,0,0,0,0,0,0,0,0,0,0,0,0,0,0,0,0,0,0,0,1.0815,1.0814,0,1.0717,1.0716,1.0715,1.0623,1.0622,1.0621,1.062,1.0515,1.0514,1.0512,0,0,0,0,0,0,0,0,0,0,0,0,0,1.0918,1.0917,1.0815,1.0814,1.0813,1.0717,1.0716,1.0715,1.0623,1.0622,1.062,1.0619,1.0516,1.0514,1.0512,0,0,0,0,0,0,0,0,0,0,0,0,0,1.0852,1.0916,1.0815,1.0756,1.0749,1.0718,1.0716,1.0714,1.0624,1.0622,1.062,1.0619,1.0517,1.0514,1.0512,1.053,0,0,1.0504,1.0503,0,0,0,0,0,0,0,0,1.0856,1.0848,1.0766,1.076,1.0753,1.0681,1.0714,1.0652,1.0624,1.0671,1.062,1.0618,1.0572,1.0564,1.055,1.0525,1.052,1.0504,1.0502,1.0501,1.05,0,0,0,0,0,0,0,1.0861,1.0852,1.0776,1.0764,1.0756,1.0732,1.0721,1.0702,1.0632,1.0667,1.066,1.065,1.0568,1.0552,1.0546,1.0519,1.0504,1.0501,1.05,1.0499,1.0501,1.0503,0,0,0,0,0,0,1.0875,1.0856,1.0779,1.0773,1.0801,1.0732,1.0719,1.0705,1.0632,1.0619,1.0651,1.0646,1.0558,1.055,1.0542,1.0557,1.0501,1.0498,1.0497,1.05,1.0502,1.0503,0,0,0,0,0,0,1.0877,1.0869,1.0783,1.0813,1.08,1.0732,1.0717,1.0704,1.0689,1.062,1.0607,1.0649,1.0556,1.0546,1.0533,1.0552,1.0497,1.0495,1.0498,1.05,1.0503,1.0588,0,0,0,0,0,0,1.0881,1.087,1.0878,1.0814,1.0799,1.0778,1.0718,1.0704,1.0685,1.0677,1.0614,1.0602,1.0554,1.0538,1.0531,1.0548,1.0493,1.0496,1.0499,1.0502,1.0583,1.0593,1.0602,0,0,0,0,0,1.0885,1.0905,1.0879,1.087,1.0807,1.0779,1.077,1.0715,1.0687,1.0693,1.0649,1.0604,1.0552,1.0537,1.0529,1.0545,1.0494,1.0498,1.0502,1.0579,1.0591,1.0602,0,0,0,0,0,0,1.0972,1.0896,1.0865,1.0866,1.083,1.0764,1.0769,1.073,1.07,1.0693,1.0625,1.0611,1.0606,1.0574,1.0559,1.0558,1.0517,1.0519,1.0579,1.059,1.0599,1.0606,1.0491,0,0,0,0,0,1.0992,1.0977,1.091,1.0917,1.0901,1.0839,1.0824,1.0785,1.0744,1.0728,1.0682,1.0643,1.0617,1.0602,1.0574,1.0578,1.0562,1.0585,1.0595,1.0603,1.0605,1.0603,1.0612,1.0515,1.0515,1.0515,0,0,1.1032,1.0988,1.0983,1.0934,1.0901,1.0885,1.0826,1.0812,1.0799,1.0725,1.071,1.0676,1.0627,1.0623,1.0618,1.0596,1.0628,1.0607,1.0614,1.0612,1.0607,1.0617,1.0625,1.0518,1.0517,1.0517,0,0,1.1096,1.1063,1.1064,1.1033,1.0984,1.0942,1.0943,1.0882,1.0856,1.0841,1.0784,1.0767,1.0725,1.0692,1.067,1.0721,1.0678,1.0714,1.0761,1.076,1.0768,1.0774,1.0791,1.0798,1.0716,1.0717,1.0717,0,1.1152,1.1127,1.107,1.1059,1.1038,1.0971,1.0971,1.0943,1.0887,1.0874,1.085,1.0794,1.0757,1.0743,1.0755,1.074,1.0737,1.072,1.0772,1.0777,1.0782,1.0798,1.0804,1.0721,1.0721,1.072,1.072,0,1.1197,1.1181,1.1188,1.1137,1.1117,1.1112,1.1051,1.1038,1.1,1.096,1.0944,1.0897,1.0858,1.0852,1.0814,1.0832,1.0819,1.0785,1.0742,1.0797,1.081,1.0816,1.0728,1.0726,1.0725,1.0723,0,0,1.1314,1.1231,1.1234,1.121,1.1151,1.1136,1.1127,1.109,1.1079,1.1043,1.1032,1.0998,1.0965,1.094,1.0898,1.0897,1.0938,1.0861,1.0859,1.0876,1.0953,1.0979,1.0987,1.091,1.0911,1.0912,1.0956,0,1.1368,1.1349,1.1296,1.1293,1.1276,1.1212,1.1203,1.1165,1.1128,1.1106,1.1064,1.104,1.0999,1.0983,1.098,1.0934,1.0953,1.093,1.0897,1.0897,1.0911,1.0994,1.1021,1.1066,1.0961,1.0962,1.0963,0,1.1428,1.1397,1.1393,1.1333,1.1324,1.1318,1.1279,1.126,1.1215,1.1187,1.1159,1.1113,1.1097,1.1059,1.1035,1.1022,1.1005,1.098,1.098,1.0975,1.0933,1.0989,1.1079,1.1085,1.097,1.097,1.0969,0,1.1513,1.1469,1.146,1.1442,1.1372,1.1369,1.134,1.1293,1.1274,1.1239,1.1226,1.119,1.117,1.1142,1.1086,1.1064,1.1069,1.1026,1.1044,1.1045,1.1047,1.1048,1.1135,1.1038,1.1038,1.1038,1.1038,0,1.1578,1.1577,1.1497,1.1492,1.1489,1.1427,1.1425,1.1389,1.1348,1.1333,1.1274,1.1261,1.1189,1.1167,1.1123,1.111,1.1101,1.1077,1.1065,1.1082,1.1085,1.1069,1.1064,1.104,1.1039,1.1039,1.1039,0,1.1671,1.1618,1.1604,1.154,1.1523,1.1524,1.1468,1.1459,1.1418,1.1399,1.1391,1.1326,1.1297,1.1239,1.1193,1.1164,1.116,1.1139,1.1176,1.1168,1.1189,1.1188,1.1269,1.1275,1.1176,1.1177,1.1178,0,1.1716,1.1714,1.165,1.1636,1.1609,1.1588,1.1569,1.1507,1.1489,1.1436,1.1433,1.14,1.137,1.1326,1.1273,1.1238,1.1215,1.1246,1.1209,1.1226,1.1214,1.1215,1.1213,1.1254,1.1256,1.1257,1.1258,0,1.18,1.1774,1.1749,1.1714,1.1692,1.1661,1.1627,1.1619,1.1549,1.1531,1.1501,1.1478,1.1432,1.1398,1.1355,1.1322,1.1278,1.127,1.1272,1.1288,1.1309,1.1297,1.1197,1.1268,1.1267,1.1266,1.1266,1.1265,1.187,1.1864,1.1818,1.1791,1.176,1.1729,1.1717,1.1675,1.1649,1.1608,1.1573,1.1546,1.1498,1.1435,1.1405,1.1382,1.136,1.1364,1.1364,1.1366,1.1372,1.1314,1.1374,1.1373,1.1373,1.1373,1.1372,0,1.195,1.1917,1.1893,1.1848,1.1826,1.1788,1.1748,1.1732,1.1709,1.167,1.1641,1.1606,1.1573,1.1518,1.148,1.1472,1.145,1.1464,1.1463,1.1456,1.1394,1.1396,1.1482,1.1482,1.1482,1.1482,1.1482,1.1482,1.1989,1.1978,1.1946,1.1918,1.1884,1.1858,1.1838,1.1809,1.1777,1.1741,1.1714,1.1679,1.1632,1.159,1.1557,1.1542,1.153,1.155,1.1528,1.1471,1.1461,1.1451,1.1452,1.1548,1.1548,1.1591,1.1591,1.1592]}]]